LA6LOA Weather Reports


time (UTC)temp
C
wind
direction
speed
KPH
gust
KPH
rain 1hr
cm
rain 24hr
cm
rain mn
cm
humidity
%
barometer
mb
20260506025602 4 182 0.0 0.0 0.00 0.00 0.00 100 1002.8
20260506025102 5 182 0.0 1.6 0.00 0.00 0.00 100 1002.8
20260506024602 4 154 0.0 0.0 0.00 0.00 0.00 100 1002.8
20260506024102 3 154 0.0 0.0 0.00 0.00 0.00 100 1002.8
20260506023602 3 154 0.0 0.0 0.00 0.00 0.00 100 1002.8
20260506023102 3 154 0.0 6.4 0.00 0.00 0.00 100 1002.8
20260506022602 4 165 0.0 0.0 0.00 0.00 0.00 100 1002.8
20260506022102 3 165 0.0 0.0 0.00 0.00 0.00 100 1002.7
20260506021602 2 165 0.0 0.0 0.00 0.00 0.00 100 1002.7
20260506021102 2 165 0.0 0.0 0.00 0.00 0.00 100 1002.7
20260506020602 1 165 0.0 0.0 0.00 0.00 0.00 100 1002.7
20260506015602 1 165 0.0 0.0 0.00 0.00 0.00 100 1002.6
20260506015102 1 165 0.0 0.0 0.00 0.00 0.00 100 1002.5
20260506014602 1 165 0.0 0.0 0.00 0.00 0.00 100 1002.5
20260506014102 1 165 0.0 0.0 0.00 0.00 0.00 100 1002.4
20260506013602 0 165 0.0 0.0 0.00 0.00 0.00 100 1002.4
20260506013102 0 165 0.0 0.0 0.00 0.00 0.00 100 1002.3
20260506012602 1 165 0.0 0.0 0.00 0.00 0.00 100 1002.3
20260506012102 1 165 0.0 0.0 0.00 0.00 0.00 100 1002.3
20260506011602 1 165 0.0 0.0 0.00 0.00 0.00 100 1002.3
20260506011102 1 165 0.0 0.0 0.00 0.00 0.00 100 1002.3
20260506010602 1 165 0.0 0.0 0.00 0.00 0.00 100 1002.4
20260506005602 0 165 0.0 0.0 0.00 0.00 0.00 100 1002.3
20260506005102 0 165 0.0 0.0 0.00 0.00 0.00 100 1002.3
20260506004602 0 165 0.0 0.0 0.00 0.00 0.00 100 1002.3
20260506004102 0 165 0.0 0.0 0.00 0.00 0.00 100 1002.2
20260506003602 0 165 0.0 0.0 0.00 0.00 0.00 100 1002.2
20260506003102 0 165 0.0 0.0 0.00 0.00 0.00 100 1002.2
20260506002602 0 165 0.0 0.0 0.00 0.00 0.00 100 1002.2
20260506002102 0 165 0.0 0.0 0.00 0.00 0.00 100 1002.2
20260506001602 0 165 0.0 0.0 0.00 0.00 0.00 100 1002.2
20260506001102 0 165 0.0 0.0 0.00 0.00 0.00 100 1002.2
20260506000602 0 165 0.0 0.0 0.00 0.00 0.00 100 1002.2
20260505235602 0 165 0.0 0.0 0.00 0.00 0.00 100 1002.2
20260505235102 0 165 0.0 0.0 0.00 0.00 0.00 100 1002.1
20260505234602 0 165 0.0 0.0 0.00 0.00 0.00 100 1002.1
20260505234102 0 165 0.0 0.0 0.00 0.00 0.00 100 1002.1
20260505233602 0 165 0.0 0.0 0.00 0.00 0.00 100 1002.1
20260505233102 1 165 0.0 0.0 0.00 0.00 0.00 100 1002.1
20260505232602 1 165 0.0 6.4 0.00 0.00 0.00 100 1002.1
20260505232102 1 172 0.0 0.0 0.00 0.00 0.00 100 1002.1
20260505231602 1 172 0.0 0.0 0.00 0.00 0.00 100 1002.1
20260505231103 1 172 0.0 0.0 0.00 0.00 0.00 100 1002.1
20260505230603 1 172 0.0 0.0 0.00 0.00 0.00 100 1002.0
20260505225603 2 172 0.0 0.0 0.00 0.00 0.00 100 1002.1
20260505225103 2 172 0.0 0.0 0.00 0.00 0.00 100 1002.0
20260505224603 2 172 0.0 0.0 0.00 0.00 0.00 100 1002.0
20260505224103 2 172 0.0 0.0 0.00 0.00 0.00 100 1002.0
20260505223603 2 172 0.0 0.0 0.00 0.00 0.00 100 1002.0
20260505223103 2 172 0.0 0.0 0.00 0.00 0.00 100 1002.0
20260505222603 2 172 0.0 0.0 0.00 0.00 0.00 100 1002.0
20260505222103 2 172 0.0 0.0 0.00 0.00 0.00 100 1001.9
20260505221603 2 172 0.0 9.7 0.00 0.00 0.00 100 1001.8
20260505221103 2 126 0.0 9.7 0.00 0.00 0.00 100 1001.9
20260505220603 2 156 1.6 11.3 0.00 0.00 0.00 100 1001.9
20260505215603 2 153 1.6 12.9 0.00 0.00 0.00 100 1001.9
20260505215103 2 135 3.2 11.3 0.00 0.00 0.00 100 1001.9
20260505214603 2 88 1.6 9.7 0.00 0.00 0.00 100 1001.9
20260505214103 2 108 3.2 11.3 0.00 0.00 0.00 100 1001.9
20260505213603 2 125 0.0 11.3 0.00 0.00 0.00 100 1001.8
20260505213103 2 57 8.0 11.3 0.00 0.00 0.00 100 1001.8
20260505212603 2 133 8.0 11.3 0.00 0.00 0.00 100 1001.8
20260505212103 2 147 0.0 9.7 0.00 0.00 0.00 100 1001.9
20260505211603 2 133 1.6 12.9 0.00 0.00 0.00 100 1001.9
20260505211103 2 97 0.0 12.9 0.00 0.00 0.00 100 1001.9
20260505210603 3 105 12.9 16.1 0.00 0.00 0.00 100 1002.0
20260505210103 3 123 9.7 14.5 0.00 0.00 0.00 100 1002.0
20260505205603 3 123 12.9 17.7 0.00 0.00 0.00 100 1002.0
20260505205103 3 119 9.7 17.7 0.00 0.00 0.00 100 1002.0
20260505204603 3 146 8.0 14.5 0.00 0.00 0.00 100 1002.1
20260505204103 3 125 6.4 14.5 0.00 0.00 0.00 100 1002.2
20260505203603 3 119 11.3 16.1 0.00 0.00 0.00 100 1002.2
20260505203103 3 109 14.5 16.1 0.00 0.00 0.00 100 1002.2
20260505202603 3 133 6.4 16.1 0.00 0.00 0.00 100 1002.2
20260505202103 3 111 9.7 14.5 0.00 0.00 0.00 100 1002.1
20260505201603 3 108 14.5 17.7 0.00 0.00 0.00 100 1002.2
20260505201103 3 91 6.4 12.9 0.00 0.00 0.00 100 1002.1
20260505200603 3 91 11.3 11.3 0.00 0.00 0.00 100 1002.1
20260505200103 3 90 3.2 9.7 0.00 0.00 0.00 100 1002.1
20260505195603 3 151 4.8 8.0 0.00 0.00 0.00 100 1002.0
20260505195103 3 132 6.4 6.4 0.00 0.00 0.00 100 1002.1
20260505194603 4 127 0.0 9.7 0.00 0.00 0.00 100 1002.0
20260505194103 4 147 6.4 9.7 0.00 0.00 0.00 100 1002.0
20260505193603 4 160 1.6 8.0 0.00 0.00 0.00 100 1002.0
20260505193103 4 112 6.4 11.3 0.00 0.00 0.00 100 1002.0
20260505192603 4 113 6.4 12.9 0.00 0.00 0.00 100 1002.0
20260505192103 5 7 0.0 0.0 0.00 0.00 0.00 100 1002.0
20260505191603 5 7 0.0 0.0 0.00 0.00 0.00 100 1001.9
20260505191103 5 7 0.0 0.0 0.00 0.00 0.00 100 1001.9
20260505190603 5 7 0.0 0.0 0.00 0.00 0.00 100 1001.9
20260505190103 5 7 0.0 0.0 0.00 0.00 0.00 100 1001.9
20260505185603 5 7 0.0 0.0 0.00 0.00 0.00 100 1001.8
20260505185103 5 7 0.0 0.0 0.00 0.00 0.00 100 1001.8
20260505184603 5 7 0.0 0.0 0.00 0.00 0.00 100 1001.8
20260505184103 5 7 0.0 0.0 0.00 0.00 0.00 100 1001.7
20260505183603 5 7 0.0 6.4 0.00 0.00 0.00 100 1001.8
20260505183104 5 33 0.0 6.4 0.00 0.00 0.00 100 1001.7
20260505182603 5 16 1.6 11.3 0.00 0.00 0.00 100 1001.7
20260505182103 5 18 0.0 11.3 0.00 0.00 0.00 100 1001.6
20260505181604 5 28 11.3 11.3 0.00 0.00 0.00 100 1001.7
20260505181104 6 23 8.0 12.9 0.00 0.00 0.00 100 1001.6
20260505180604 5 14 8.0 9.7 0.00 0.00 0.00 100 1001.6
20260505180104 5 357 1.6 9.7 0.00 0.00 0.00 100 1001.5
20260505175604 5 16 9.7 9.7 0.00 0.00 0.00 100 1001.4
20260505175104 5 12 8.0 9.7 0.00 0.00 0.00 100 1001.4
20260505174604 5 18 1.6 12.9 0.00 0.00 0.00 100 1001.4
20260505174104 5 2 6.4 12.9 0.00 0.00 0.00 100 1001.3
20260505173604 5 9 11.3 14.5 0.00 0.00 0.00 100 1001.3
20260505173104 5 16 8.0 12.9 0.00 0.00 0.00 100 1001.3
20260505172604 5 352 11.3 14.5 0.00 0.00 0.00 100 1001.3
20260505172104 5 351 12.9 17.7 0.00 0.00 0.00 100 1001.3
20260505171604 5 4 8.0 16.1 0.00 0.00 0.00 100 1001.2
20260505171104 5 25 9.7 16.1 0.00 0.00 0.00 100 1001.2
20260505170604 5 15 11.3 16.1 0.00 0.00 0.00 100 1001.2
20260505170104 5 7 12.9 17.7 0.00 0.00 0.00 100 1001.1
20260505165604 5 15 14.5 20.9 0.00 0.00 0.00 100 1001.1
20260505165104 5 12 16.1 22.5 0.00 0.00 0.00 100 1001.0
20260505164604 5 345 16.1 22.5 0.00 0.00 0.00 100 1000.9
20260505164104 5 9 16.1 22.5 0.00 0.00 0.00 100 1000.9
20260505163604 5 345 22.5 24.1 0.00 0.00 0.00 100 1000.8
20260505163104 5 354 17.7 20.9 0.00 0.00 0.00 100 1000.7
20260505162604 5 345 17.7 22.5 0.00 0.00 0.00 100 1000.7
20260505162104 5 351 17.7 20.9 0.00 0.00 0.00 100 1000.7
20260505161604 5 340 19.3 20.9 0.00 0.00 0.00 100 1000.7
20260505161104 5 348 16.1 20.9 0.00 0.00 0.00 100 1000.6
20260505160604 5 345 14.5 19.3 0.00 0.00 0.00 100 1000.6
20260505160104 5 351 14.5 19.3 0.00 0.00 0.00 100 1000.6
20260505153104 5 337 12.9 19.3 0.00 0.00 0.00 100 1000.5
20260505152604 5 341 19.3 20.9 0.00 0.00 0.00 100 1000.5
20260505152104 5 340 16.1 17.7 0.00 0.00 0.00 100 1000.5
20260505151604 5 326 16.1 17.7 0.00 0.00 0.00 100 1000.5
20260505151104 5 345 16.1 19.3 0.00 0.00 0.00 100 1000.5
20260505150604 5 327 16.1 19.3 0.00 0.00 0.00 100 1000.5
20260505150104 5 329 17.7 19.3 0.00 0.00 0.00 100 1000.4
20260505140604 5 345 16.1 17.7 0.00 0.00 0.00 100 1000.2
20260505140104 5 352 11.3 17.7 0.00 0.00 0.00 100 1000.2
20260505130105 5 337 17.7 20.9 0.00 0.00 0.00 100 999.9
20260505124605 5 350 14.5 19.3 0.00 0.00 0.00 100 999.8
20260505124105 5 341 19.3 19.3 0.00 0.00 0.00 100 999.7
20260505123605 5 340 16.1 20.9 0.00 0.00 0.00 100 999.7
20260505123105 5 340 16.1 20.9 0.00 0.00 0.00 100 999.6
20260505122605 5 345 17.7 19.3 0.00 0.00 0.00 100 999.6
20260505122105 5 350 17.7 20.9 0.00 0.00 0.00 100 999.4
20260505121605 5 343 17.7 19.3 0.00 0.00 0.00 100 999.4
20260505121105 5 348 16.1 19.3 0.00 0.00 0.00 100 999.4
20260505120605 5 330 14.5 19.3 0.00 0.00 0.00 100 999.4
20260505120105 5 317 12.9 17.7 0.00 0.00 0.00 100 999.3
20260505115605 5 333 12.9 17.7 0.00 0.00 0.00 100 999.2
20260505115105 5 0 11.3 19.3 0.00 0.00 0.00 100 999.1
20260505114605 5 333 14.5 19.3 0.00 0.00 0.00 100 999.1
20260505114105 5 333 17.7 17.7 0.00 0.00 0.00 100 999.0
20260505113605 5 344 14.5 19.3 0.00 0.00 0.00 100 999.0
20260505113105 5 347 14.5 17.7 0.00 0.00 0.00 100 998.9
20260505112605 5 350 14.5 17.7 0.00 0.00 0.00 100 999.0
20260505112105 5 341 12.9 17.7 0.00 0.00 0.00 100 998.9
20260505111605 5 341 16.1 19.3 0.00 0.00 0.00 100 998.9
20260505111105 5 340 17.7 19.3 0.00 0.00 0.00 100 998.8
20260505110605 5 352 12.9 17.7 0.00 0.00 0.00 100 998.8
20260505110105 5 344 16.1 19.3 0.00 0.00 0.00 100 998.8
20260505102105 5 4 11.3 22.5 0.00 0.00 0.00 100 998.4
20260505101605 5 347 19.3 20.9 0.00 0.00 0.00 100 998.4
20260505101105 5 351 17.7 22.5 0.00 0.00 0.00 100 998.3
20260505100605 5 348 17.7 17.7 0.00 0.00 0.00 100 998.3
20260505100105 5 344 14.5 14.5 0.00 0.00 0.00 100 998.2
20260505095605 5 343 12.9 19.3 0.00 0.00 0.00 100 998.2
20260505095105 5 347 12.9 16.1 0.00 0.00 0.00 100 998.1
20260505094605 5 8 11.3 14.5 0.00 0.00 0.00 100 998.1
20260505094105 5 343 11.3 16.1 0.00 0.00 0.00 100 998.1
20260505093605 5 345 14.5 16.1 0.00 0.00 0.00 100 998.1
20260505093105 5 345 14.5 17.7 0.00 0.00 0.00 100 998.1
20260505092605 5 350 14.5 19.3 0.00 0.00 0.00 100 998.1
20260505092105 5 345 16.1 19.3 0.00 0.00 0.00 100 998.2
20260505091605 5 4 14.5 20.9 0.00 0.00 0.00 100 998.2
20260505091105 5 357 17.7 20.9 0.00 0.00 0.00 100 998.1
20260505090605 5 5 11.3 19.3 0.00 0.00 0.00 100 998.0
20260505090105 5 351 16.1 19.3 0.00 0.00 0.00 100 998.0
20260505085606 5 347 17.7 19.3 0.00 0.00 0.00 100 998.0
20260505085106 5 355 11.3 16.1 0.00 0.00 0.00 100 997.9
20260505084605 5 4 11.3 12.9 0.00 0.00 0.00 100 997.9
20260505084106 5 15 12.9 19.3 0.00 0.00 0.00 100 997.9
20260505083606 5 340 16.1 17.7 0.00 0.00 0.00 100 997.9
20260505083106 5 347 16.1 20.9 0.00 0.00 0.00 100 997.9
20260505082606 5 330 19.3 22.5 0.00 0.00 0.00 100 997.8
20260505082106 5 333 19.3 20.9 0.00 0.00 0.00 100 997.8
20260505081606 4 340 19.3 20.9 0.00 0.00 0.00 100 997.9
20260505081106 4 336 14.5 20.9 0.00 0.00 0.00 100 997.8
20260505080606 5 329 17.7 20.9 0.00 0.00 0.00 100 997.8
20260505080106 5 351 19.3 20.9 0.00 0.00 0.00 100 997.8
20260505075606 5 343 19.3 20.9 0.00 0.00 0.00 100 997.8
20260505075106 5 347 17.7 20.9 0.00 0.00 0.00 100 997.7
20260505074606 5 351 16.1 20.9 0.00 0.00 0.00 100 997.7
20260505074106 5 347 17.7 19.3 0.00 0.00 0.00 100 997.7
20260505073606 5 343 17.7 20.9 0.00 0.00 0.00 100 997.6
20260505073106 5 340 16.1 20.9 0.00 0.00 0.00 100 997.6
20260505072606 5 337 12.9 20.9 0.00 0.00 0.00 100 997.6
20260505072106 5 344 19.3 20.9 0.00 0.00 0.00 100 997.5
20260505071606 5 351 14.5 16.1 0.00 0.00 0.00 100 997.5
20260505071106 5 345 14.5 17.7 0.00 0.00 0.00 100 997.4
20260505070606 5 358 11.3 14.5 0.00 0.00 0.00 100 997.3
20260505070106 5 355 12.9 14.5 0.00 0.00 0.00 100 997.3
20260505065606 5 358 12.9 14.5 0.00 0.00 0.00 100 997.2
20260505065106 5 7 11.3 14.5 0.00 0.00 0.00 100 997.1
20260505064606 4 348 11.3 17.7 0.00 0.00 0.00 100 997.0
20260505064106 4 354 14.5 17.7 0.00 0.00 0.00 100 996.8
20260505063606 5 354 12.9 17.7 0.00 0.00 0.00 100 996.7
20260505063106 4 354 14.5 19.3 0.00 0.00 0.00 100 996.6
20260505062606 4 337 16.1 20.9 0.00 0.00 0.00 100 996.5
20260505062106 4 338 12.9 20.9 0.00 0.00 0.00 100 996.4
20260505061606 4 341 17.7 20.9 0.00 0.00 0.00 100 996.2
20260505061106 4 317 17.7 19.3 0.00 0.00 0.00 100 996.1
20260505060606 4 320 17.7 19.3 0.00 0.00 0.00 100 996.0
20260505060106 4 327 14.5 20.9 0.00 0.00 0.00 100 996.0
20260505055606 4 323 16.1 19.3 0.00 0.00 0.00 100 995.9
20260505055106 4 324 16.1 20.9 0.00 0.00 0.00 100 995.9
20260505054606 4 354 16.1 19.3 0.00 0.00 0.00 100 995.9
20260505054106 4 329 16.1 19.3 0.00 0.00 0.00 100 995.8
20260505053606 4 329 16.1 19.3 0.00 0.00 0.00 100 995.8
20260505053106 4 326 17.7 17.7 0.00 0.00 0.00 100 995.7
20260505052606 4 316 14.5 16.1 0.00 0.00 0.00 100 995.7
20260505052106 4 324 14.5 17.7 0.00 0.00 0.00 100 995.7
20260505051606 4 313 14.5 20.9 0.00 0.00 0.00 100 995.7
20260505051106 4 307 14.5 19.3 0.00 0.00 0.00 100 995.6
20260505050606 4 306 12.9 17.7 0.00 0.00 0.00 100 995.6
20260505050106 4 312 14.5 29.0 0.00 0.00 0.00 100 995.6
20260505041607 4 300 12.9 29.0 0.00 0.00 0.00 100 995.5
20260505041107 4 277 16.1 27.4 0.00 0.00 0.00 100 995.5
20260505040607 5 270 20.9 27.4 0.00 0.00 0.00 100 995.6
20260505040107 5 292 16.1 30.6 0.00 0.00 0.00 100 995.5
20260505035607 5 306 16.1 24.1 0.00 0.00 0.00 100 995.6
20260505035107 6 312 14.5 17.7 0.00 0.00 0.00 100 995.5
20260505034607 6 317 12.9 14.5 0.00 0.00 0.00 100 995.5
20260505034107 6 295 11.3 17.7 0.00 0.00 0.00 100 995.5
20260505033607 5 285 9.7 27.4 0.00 0.00 0.00 100 995.4
20260505033107 5 275 16.1 27.4 0.00 0.00 0.00 100 995.4
20260505032607 5 255 17.7 27.4 0.00 0.00 0.00 100 995.4
20260505032107 5 243 20.9 25.7 0.00 0.00 0.00 100 995.4
20260505031607 5 291 19.3 27.4 0.00 0.00 0.00 100 995.4
20260505031107 5 271 9.7 27.4 0.00 0.00 0.00 100 995.4
20260505030607 4 282 12.9 25.7 0.00 0.00 0.00 100 995.4
20260505030107 3 278 25.7 27.4 0.00 0.00 0.00 100 995.4